[Date Prev][Date Next][Thread Prev][Thread Next][Date Index][Thread Index]

[jamsat-news:1237] jas2info #176



========================   ºÇ¿·¾ðÊó   ==============================

        Last updated ¡§Sat.11-Mar.-2000 16:05 (JST) #176

====================================================================
   
  £±¡Ë¥¢¥Þ¥Á¥å¥¢ÄÌ¿®±ÒÀ±¾ðÊ󡡣ƣϥ·¥ê¡¼¥º¤Îµ°Æ»Í×ÁÇ¡¢¥Æ¥ì¥á¥È¥ê¡¢
¡¡¡¡¡¡£Ñ£Ó£Ï¤Î¾õ¶·Åù¤ò¤Þ¤È¤á¤Æ¤ß¤Þ¤·¤¿¡¥
¡¡¡¡¡¡
¡¡¡¡¡¡£Æ£Ï¡Ý£²£¹¤Î£³·î£±£±Æü¡ÊÅڡˤΥƥì¥á¥È¥ê¤Ï£Ê£Á£Ò£Ì¤Î¥Û¡¼¥à¥Ú¡¼¥¸¤Î
¡¡¡¡±¿ÍÑͽÄê¤Î¤È¤¦¤ê£±£°¡§£±£°¡Ê£Ê£Ó£Ô¡Ëº¢¤è¤ê¥Ç¥£¥¸¥¿¥ë·Ï±¿ÍѤ«¤é
¡¡¡¡¥¢¥Ê¥í¥°·Ï±¿ÍѤËÀÚ¤êÂؤï¤ê¤Þ¤·¤¿.
¡¡¡¡£Ã£×¿®¹æ¤Ç£±£°¡§£°£¸¡Á£±£°¡§£±£¹¡Ê£Ê£Ó£Ô¡Ë¤Ë¼õ¿®¤Ç¤­¤Þ¤·¤¿.
¡¡¡¡¸½ºß¤Þ¤Ç¡¢Åö¶É¤Ç¼èÆÀ¤·¤¿¥Ç¡¼¥¿¤Î£±Éô¤ò·ÇºÜ¤·¤Æ¤ª¤­¤Þ¤¹.
    
¡¡AS17604C1  11Mar2000
¡¡13:37-13:47(JST)

¡¡HI HI AE C7 88 55 02 2C FF 0D 00 2E 4B 50 82 60 94 92 A0 8B BA B6 B9 BA B8 
¡¡HI HI AE C7 88 55 07 2C FF 1A 00 2E 6F 48 8B 42 96 92 B0 74 BA B6 B8 BA B8 
¡¡HI HI AE C7 88 55 0C 2C FF 0D 00 2E 5A 3E 8E 40 96 92 B0 8D BA B6 B8 BA B8 
¡¡HI HI AE C7 88 55 11 2C FF 0D 00 2E 5A 48 84 60 94 93 B0 89 BA B6 B8 B9 B8 
¡¡HI HI AE C7 88 55 16 2C FF 0D 00 2E 5F 43 8B 60 92 90 9E 8F B9 B6 B8 B9 B8 
¡¡HI HI AE C7 88 55 1C 2C FF 0D 00 2E 5F 3A 80 60 92 90 B0 8C B9 B6 B8 B9 B8 
¡¡HI HI AE C7 88 55 01 2C FF 0D 00 2E 4D 4B 9C 60 93 90 B0 8D B9 B5 B8 B9 B8 
¡¡HS HI AE C7 88 55 03 2C FF 0D 00 2E 86 26 77 60 92 90 B0 8E B8 B5 B7 B8 B8 
¡¡HI HI AE C7 88 55 06 2C FF 0D 00 2E 27 66 90 60 92 90 B0 A2 B8 B5 B7 B7 B8 
¡¡HI HI AE C7 88 55 0B 2C FF 1E 00 2E 92 48 8E 5F 92 90 B0 B8 B8 B5 B7 B7 B8 
¡¡HI HI AE 07 88 55 10 2C FF 0D 00 2E 3E 47 86 60 93 91 B0 6D B8 B5 B7 B7 B8 

¡¡AS17602P-C  11Mar2000
¡¡10:08-10:19 (JST)

¡¡03/11/00 10:07:08
¡¡cmd:8J1JCS>BEACON [03/11/00  10:08:57]:
¡¡95 02 00 09 00 00 A8 40 00 00
¡¡9B 43 D8 28 35 9D A0 83 8D 88
¡¡00 00 00 AB 80 B3 F7 00 00 00                                     
¡¡8J1JCS>BEACON [03/11/00  10:08:58]:
¡¡User not connect.
                                                                                                             
¡¡8J1JCS>BEACON [03/11/00  10:08:59]:
¡¡Total    2 File(s) No.  Date  
¡¡UTC    To    From   Size   
¡¡Subject0002 03/10 07:
¡¡55 ALL    K7XQ        
¡¡69 0001 03/07 08:52 ALL
¡¡8J1JCS>BEACON [03/11/00  10:09:00]:
    K7XQ        29 Hello from K7XQ

¡¡MODE  cwe:K¡Ê¥Ç¥£¥¸¥¿¥ë·Ï¤«¤é¥¢¥Ê¥í¥°±¿ÍѤؤÎÀÚ¤êÂؤ¨¡Ë

¡¡HI HI AE C7 88 55 0E 2C 05 0D 00 2E 6E 3D 82 60 93 91 B0 AC B9 B8 B7 B8 B9 
¡¡HI HI AE C7 88 55 13 2C FF 0D 00 2E 6E 3A 88 60 93 91 B0 80 B9 B8 B7 B8 B8 
¡¡HI HI AE C7 88 55 18 2C FF 0D 00 2E 83 42 87 60 93 91 B0 8D B9 B7 B7 B8 B9 
¡¡HI HI AE C7 88 55 1D 2C FF 25 00 2E 52 3C 8C 60 94 91 B0 93 B9 B7 B6 B8 B8 
¡¡HI HI AE C7 88 55 03 2C 0A 0D 00 2E 98 4A 8C 60 92 90 B0 7A B9 B7 B6 B8 B8 
¡¡HI HI AE C7 88 55 08 2C FF 1A 00 2E 46 3C 8A 60 92 90 B0 7E B9 B7 B6 B8 B8 
¡¡HI HI AE C7 88 55 0D 2C FF 0D 00 2E 8B 5E 91 60 93 91 B0 85 B9 B7 B6 B7 B9 
¡¡HI HI AE C7 88 55 12 2C FF 0D 00 2E 63 3F 88 60 92 90 B1 8C B8 B6 B6 B7 B8 
¡¡HI HI AE 07 88 I5 18 2C FF 0D 00 2E 5D 61 8F 60 93 91 B0 98 B8 B6 B6 B7 B8 
¡¡HI HI AE C7 88 55 1D 2C FF 0D 00 2E 95 4A 8C 60 92 90 B0 73 B8 B6 B6 B7 B8 
¡¡HI HI AE C7 88 55 07 2C FF 0D 00 2E AD 68 92 60 93 91 B0 9D B8 B5 B6 B7 B8 

-------------------------¡¡£Æ£Ï-£²£¹¤Îµ°Æ»Í×ÁÇ¡¡------------------------------        
 
¡¡¡¡¢£ µ°Æ»Í×ÁÇ£±¡§¡Öjamsat¡Ýkeps¡§£¹£·£´¡×¤è¤ê              
¡¡¡¡¡¡¡¡¡¡¡¡¡¡¡¡¡¡¡¡¡¡¡¡SB KEPS @ AMSAT  $ORB00070.N
¡¡¡¡¡¡¡¡¡¡¡¡¡¡¡¡¡¡¡¡¡¡¡¡¡¡¡¡¡¡¡¡¡¡¡¡2Line Orbital Elements 00070.AMSAT

¡¡HR AMSAT ORBITAL ELEMENTS FOR AMATEUR SATELLITES IN NASA FORMAT
¡¡FROM WA5QGD FORT WORTH,TX March 10, 2000
¡¡SEND SUBSCRIBE/UNSUBSCRIBE TO majordomo@amsat.org ONLY
¡¡BID: ORB00070.N

 ¡¡DECODE 2-LINE ELSETS WITH THE FOLLOWING KEY:
 ¡¡1 AAAAAU 00  0  0 BBBBB.BBBBBBBB  .CCCCCCCC  00000-0  00000-0 0  DDDZ
 ¡¡2 AAAAA EEE.EEEE FFF.FFFF GGGGGGG HHH.HHHH III.IIII JJ.JJJJJJJJKKKKKZ
 ¡¡KEY: A-CATALOGNUM B-EPOCHTIME C-DECAY D-ELSETNUM E-INCLINATION F-RAAN
 ¡¡G-ECCENTRICITY H-ARGPERIGEE I-MNANOM J-MNMOTION K-ORBITNUM Z-CHECKSUM

 ¡¡TO ALL RADIO AMATEURS BT

¡¡FO-29
¡¡1 24278U 96046B   00069.19393826  .00000021  00000-0  54614-4 0 03265
¡¡2 24278 098.5900 350.1696 0351873 125.6226 237.8231 13.52701788175772
¡¡¡¡
 ¢£ µ°Æ»Í×ÁÇ£²¡§¡Öjamsat¡Ýkeps¡§£¹£·£´¡×¤è¤ê                         
¡¡¡¡¡¡¡¡¡¡¡¡¡¡¡¡¡¡SB KEPS @ AMSAT  $ORB00070.O
¡¡¡¡¡¡¡¡¡¡¡¡¡¡¡¡¡¡¡¡¡¡¡¡¡¡Orbital Elements  00070.OSCAR

¡¡HR AMSAT ORBITAL ELEMENTS FOR OSCAR SATELLITES
¡¡FROM WA5QGD FORT WORTH,TX March 10, 2000
¡¡SEND SUBSCRIBE/UNSUBSCRIBE TO majordomo@amsat.org ONLY
¡¡BID: ORB00070.O
¡¡TO ALL RADIO AMATEURS BT

  Satellite: FO-29
¡¡Catalog number: 24278
¡¡Epoch time:      00069.19393826
¡¡Element set:    0326
¡¡Inclination:      098.5900 deg
¡¡RA of node:       350.1696 deg
¡¡Eccentricity:    0.0351873
¡¡Arg of perigee:   125.6226 deg
¡¡Mean anomaly:     237.8231 deg
¡¡Mean motion:   13.52701788 rev/day
¡¡Decay rate:        2.1e-07 rev/day^2
¡¡Epoch rev:           17577
¡¡Checksum:              322
-------------------¡¡¡¡FO-29¡ÊJAS-2)¤Î¥Æ¥ì¥á¥È¥ê¤Ë´Ø¤¹¤ë¾ðÊó¡¡¡¡----------------------
¡¡
¡¡£²¡Ë¾åµ­¤Î£³·î£±£±Æü¡ÊÅڡˤΣ±£³¡§£³£·¡Ê£Ê£Ó£Ô¡Ë¤Î¥Ñ¥¹¤Î¥Ç¥£¥¸¥¿¥ë¡¦¥Æ¥ì¥á¥È¥ê¤Î
¡¡¡¡ºÇ¸å¤Î¹Ô¤ÎʬÀÏ·ë²Ì¤Ç¤¹.

¡¡¡¡AS17604C1  11Mar2000
¡¡¡¡13:37-13:47(JST)
¡¡
¡¡HI HI AE 07 88 55 10 2C FF 0D 00 2E 3E 47 86 60 93 91 B0 6D B8 B5 B7 B7 B8  

¡¡¥Æ¥ì¥á¥È¥ê	Æâ   ÍÆ		´¹»»ÃÍ	ñ °Ì
¡¡
¡¡£³£Ã	¼§µ¤¥»¥ó¥µ¡¼£Ú¼´=	30392.1	[nT]
¡¡£³£Ä	¼§µ¤¥»¥ó¥µ£Ø¼´	=	34803.9	[nT]
¡¡£´£Á	ÂÀÍÛÅÅÃÓȯÀ¸ÅÅή=	 1313.7	[mA]
¡¡£´£Â	£Â½¼ÊüÅÅÅÅή	=	 -118.4	[mA]
¡¡£´£Ã	£Âü»ÒÅÅ°µ	=	   15.8	[V]
¡¡£´£Ä	£ÂÃæ´Öü»ÒÅÅ°µ	=	    7.0	[V]
¡¡£µ£Á	¥Ð¥¹ÅÅ°µ¡¡	=	   17.3	[V]
¡¡£µ£Â	£Ê£Ô£ÁÁ÷¿®ÅÅÎÏ	=	  610.4	[mW]
¡¡£µ£Ã 	¹½Âβ¹ÅÙ£±	=	   10.4	[¡î]
¡¡£µ£Ä	¹½Âβ¹ÅÙ£²	=	   11.6	[¡î]
¡¡£¶£Á	¹½Âβ¹ÅÙ£³	=	   10.8	[¡î]
¡¡£¶£Â	¹½Âβ¹ÅÙ£´	=	   10.8	[¡î]
¡¡£¶£Ã	£Â¥»¥ë²¹ÅÙ	=	   10.4	[¡î]
¡¡¡¡
 ¡¡¡¡* OS¤ÏWindows 2000,Office¡¡2000¡¡¤Ë¤Æ·×»»½èÍý.

--------------------------  £Æ£Ï¡Ý£²£¹¤Î¥Æ¥ì¥á¥È¥ê¾ðÊó¡¡-------------------------
¡¡
¡¡£³¡Ë[jamsat-bb¡§5132]¤ËJE9PEL/Mineo Wakita»á¤¬Åê¹Æ¤µ¤ì¤Æ¤¤¤Þ¤·¤¿¤Î¤Ç
¡¡¡¡¡¡Å¾ºÜ¤µ¤»¤Æ夭¤Þ¤·¤¿.

¡¡8J1JCS>BEACON [03/06/00  04:03:28] <UI C>:
¡¡JAS-2    '97/03/06 04:03:25
¡¡9C 03 63 08 00 2A 00 00 00 00
¡¡00 00 2A 4C 82 8E 60 92 90 B0
¡¡AA 52 AA 01 E5 B6 B7 B6 B4 B5

¡¡8J1JCS>BEACON [03/06/00  04:03:29] <UI C>:
¡¡D5 02 00 09 00 00 68 40 00 00
¡¡DB B4 FC 66 38 96 99 83 85 85
¡¡00 00 00 A7 7F B3 F7 00 00 00
¡¡..........................................

¡¡The above data were the digital data that I received
¡¡from FO-29(JAS-2) at today, 04:03:28UTC 6th March 2000,
¡¡435.910MHz(+/- doppler)USB with a communication program.
¡¡I noticed that the current year was incorrectly.
¡¡And I analyzed these all data with 'fo29tlme.exe'.
¡¡Please refer the more information in the below URL.

¡¡Main Relay        ON    :  DCM               ON
¡¡SRAM              ON    :  Packet            1200bps
¡¡JTA               OFF   :  JTD               ON
¡¡GAS               ON    :  SAS               ON
¡¡UVC               ON    :  UVC Level         2
¡¡PCU Mode          AUTO  :  PCU Level         1
¡¡Battery Mode      TRIC  :  Battery Logic     TRIC
¡¡Data Collect Mode ---   :  Data Replay Mode  ---
¡¡Packet Mode       ---   :  Packet Mode       DATA
¡¡Digitalker Mode   OFF   :  Digital Tx        ---
¡¡CW Telemetry      OFF   :  
¡¡Spin Period                 5869.5 [msec]
¡¡Sun Angle                     63.5 [deg]
¡¡Solar Current               1392.2 [mA]
¡¡Battery Current             -118.4 [mA]
¡¡Battery Voltage               15.7 [V]
¡¡Battery Middle Voltage         6.9 [V]
¡¡Bus Voltage                   17.3 [V]
¡¡+5V Stabilizer Voltage         5.1 [V]
¡¡-5V Stabilizer Voltage        -4.9 [V]
¡¡+10V Stabilizer Voltage       10.2 [V]
¡¡Analog  Tx Power             -91.6 [mW]
¡¡Digital Tx Power            1724.6 [mW]
¡¡Battery Cell Temp.            11.2 [C]
¡¡Structure Temp. 1             10.8 [C]
¡¡Structure Temp. 2             11.2 [C]
¡¡Structure Temp. 3             12.0 [C]
¡¡Structure Temp. 4             11.6 [C]
¡¡GAS-X                     123529.4 [nT]
¡¡GAS-Z                      50000.0 [nT]
¡¡Solar Panel Temp. 1           17.9 [C]
¡¡Solar Panel Temp. 2           17.9 [C]
¡¡Solar Panel Temp. 3            4.3 [C]
¡¡Digital Tx Temp.              17.0 [C]
¡¡----------------------------------------------
¡¡Name : JE9PEL/Mineo Wakita, Member of JAMSAT
¡¡Mail : je9pel@jamsat.or.jp
¡¡URL  : http://www.ne.jp/asahi/hamradio/je9pel/
¡¡QTH  : Yokohama Japan, GL:PM95TJ
¡¡Date : Mar 6, 2000
¡¡----------------------------------------------
 ==================================================================================

 ¡¡£´¡Ë£Ê£Á£Ò£Ì ¤Î¥Û¡¼¥à¥Ú¡¼¥¸¤Ë±¿ÍÑͽÄ꤬µ­ºÜ¤µ¤ì¤Æ¤¤¤Þ¤·¤¿¤Î¤Ç¤´¾Ò²ð¤·¤Þ¤¹¡¥
       ¡Ê http://www.jarl.or.jp/Japanese/3_Fuji/new/uy.htm ¡Ë

        ¢£ ¤Õ¤¸£³¹æ¡¿FO¡¼29/JAS-2 ¢£  
  ¡¡
¡¡¡¡¡¡¡¡¡¡¡ö¡ö¡ö¡¡±¿ÍÑͽÄê¤Ë¤Ä¤¤¤Æ¡¡¡ö¡ö¡ö
¡¡¡¡¡¡¡¡
¡¡ £°£³·î£±£±Æü¡¡¡Á¡¡£°£³·î£²£°Æü ¥¢¥Ê¥í¥°·Ï±¿ÍÑ 
   £°£³·î£²£±Æü¡¡¡Á¡¡£°£³·î£²£´Æü ¥Ç¥¸¥¿¥ë·Ï£±£²£°£°£â£ð£ó¥á¡¼¥ë¥Ü¥Ã¥¯¥¹±¿ÍÑ 
   £°£³·î£²£µÆü¡¡¡Á¡¡£°£´·î£°£²Æü ¥¢¥Ê¥í¥°·Ï±¿ÍÑ   

¡¡¡ö¤Ê¤ª¡¤±¿ÍÑͽÄê¤ÏÅÔ¹ç¤Ë¤è¤êÊѹ¹¤¹¤ë¤³¤È¤¬¤¢¤ê¤Þ¤¹¤Î¤Ç¤´Î»¾µ´ê¤¤¤Þ¤¹¡£

¡¡¾È²ñÀè¡¡¡§¡¡lab@jarl.or.jp

¡¡ºÇ¿·¤Î¾ðÊó¤Ï¥Æ¥ì¥Û¥ó¥µ¡¼¥Ó¥¹¡Ê£°£³¡Ý£³£¹£´£²¡Ý£±£°£°£°¡Ë¤ò¤ªÊ¹¤­¤¯¤À¤µ¤¤¡£¡¡¡¡
¡¡°Ê¸å¤Î±¿ÍѤˤĤ­¤Þ¤·¤Æ¤Ï£³·î²¼½Ü¤Ë¤ªÃΤ餻¤¤¤¿¤·¤Þ¤¹¡£

-----------------------    £Æ£Ï¡Ý£²£°¡ÊJAS-£±£â¡ËÆ»Í×ÁÇ   -------------------------
 ¡¡£µ¡Ë
 ¡¡¢£ µ°Æ»Í×ÁÇ£± ¡§½Ðŵ¤Ï£Æ£Ï-£²£¹¡Ö¤Õ¤¸£³¹æ¡×¤ËƱ¤¸¡¥
  
  FO-20
¡¡1 20480U 90013C   00068.88388609  .00000014  00000-0  11374-3 0 02347
¡¡2 20480 099.0356 218.1409 0539976 282.4930 071.6295 12.83264524472415
 
 ¡¡¢£ µ°Æ»Í×ÁÇ£² ¡§½Ðŵ¤Ï£Æ£Ï¡Ý£²£¹¡Ö¤Õ¤¸£³¹æ¡×¤ËƱ¤¸¡¥
               
 Satellite: FO-20
¡¡Catalog number: 20480
¡¡Epoch time:      00068.88388609
¡¡Element set:    0234
¡¡Inclination:      099.0356 deg
¡¡RA of node:       218.1409 deg
¡¡Eccentricity:    0.0539976
¡¡Arg of perigee:   282.4930 deg
¡¡Mean anomaly:     071.6295 deg
¡¡Mean motion:   12.83264524 rev/day
¡¡Decay rate:        1.4e-07 rev/day^2
¡¡Epoch rev:           47241
¡¡Checksum:              314

